User: anonymous   Login
Location: Smithers
(54.7670°N, 127.1670°W)
Time: 16:15:24
(UTC-07:00)
Language:

ERBS - Orbit

View from above orbital plane
View from above orbital plane
View from above satellite
View from above satellite

Ground track
Ground track

The orbit data is extracted from the following two-line orbital elements,

1 15354U 84108B   16236.81409050  .00002710  00000-0  73174-4 0  9990
2 15354  57.0100 336.6396 0006190 253.0452 106.9923 15.41367913752314
Epoch (UTC): 23 August 2016 19:32:17
Eccentricity: 0.0006190
inclination: 57.0100°
perigee height: 438 km
apogee height: 446 km
right ascension of ascending node: 336.6396°
argument of perigee: 253.0452°
revolutions per day: 15.41367913
mean anomaly at epoch: 106.9923°
orbit number at epoch: 75231

The dashed part of the orbit path shows where the satellite is in the earth's shadow,  

DLR